{"data":{"norad_id":58723,"epoch":"2026-09-20T13:40:03.867744Z","epoch_age_seconds":143701,"freshness":"FRESH","line1":"1 58723U 24002U   26263.56948921 -.00000231  00000+0  43078-5 0  9999","line2":"2 58723  53.1593  43.2229 0001250  89.1623 270.9523 15.34386462151874","mean_motion":15.34386462,"eccentricity":0.000125,"inclination_deg":53.1593,"raan_deg":43.2229,"arg_perigee_deg":89.1623,"mean_anomaly_deg":270.9523,"bstar":4.3078e-6,"rev_number":15187,"period_min":93.848586106725,"perigee_km":461.88836823217,"apogee_km":463.59858835175,"semimajor_km":6840.880478292,"source":"CELESTRAK","updated_at":"2026-09-21T09:00:33.950804Z"}}